CZ-3B R/B, 64471

Orbit data source: Space-Track

CZ-3B R/B, 64471 is space debris in HEO originally from a launch on Fri, 20 Jun 2025 UTC launched from the Xichang Space Center, China (XSC). Debris objects in space refer to the collection of defunct objects orbiting the Earth. Examples of debris include non-operational satellites, rocket bodies, and fragments generated from explosions, collisions, or faulty payload assembly.

Loading next visibility...
Identifier
64471, 2025-132B
Orbit
HEO
Country
Flag of CNCN / PRC
Related business
Manufacturer
CALT
Mission
Spacecraft
Bus & Motor
CZ-3A STAGE 3, Unknown motor
Mass
~2,800 kg wet, ~2,800 kg dry
Launch date (UTC)
Icon of a cake. It is the launch day of the satellite!2025-06-20 (1 year ago)
Launch vehicle
Unknown
Launch site
Xichang Space Center, China (XSC)
Object type
Payload
Rocket body
Debris
Shape & HBR
Cyl + 1 Nozzle, 6.2 m
Radar Cross Section
32.704 m²

Expand to show TLE details & history
Last TLE update: 1 day ago

TLE from 1 day ago
0 CZ-3B R/B
1 64471U 25132B   26170.66845458  .00003472  00000-0  65452-3 0  9998
2 64471  27.8729 319.5353 7225592  42.6231 354.8512  2.36187551  8361
Epoch: 2026-06-19T16:02Z
TLE epoch observation values (Epoch: 2026-06-19T16:02:34.475Z)
Latitude
0.00015°
Longitude
170.98841°
Altitude
1,073.418 km
Speed
9.5 km/s
True Right ascension
21h 18m 06s
True Declination
0° 00' 01"
Sunlit
Object was in full shadow at epoch
Visualization orbit readout
Latitude
Unknown
Longitude
Unknown
Altitude
Unknown
Speed
Unknown
Apparent Right ascension
Unknown
Apparent Declination
Unknown
Sunlit
N/A
Visualization observer readout
Local Sidereal Time
07:23:41
Azimuth
Unknown
Elevation
Unknown
Doppler factor
Unknown
Orbital elements
Apogee altitude
34,655.517 km
Perigee altitude
230.872 km
Semi-major axis
23,821.332 km
Eccentricity
0.72256
Inclination
27.8729°
RAAN
319.5353°
Arg. of periapsis
42.6231°
True anomaly
317.33733°
Mean anomaly
354.8512°
Eccentric anomaly
342.1857°
Mean motion
0.59033 °/min
Orbital period
609.83 mins
BSTAR
0.00065452
Loading maneuver chart data...
Computing Atmospheric mass density...
Loading historical data...
Loading historical data...
Loading historical data...
Loading historical data...
Loading historical data...
Loading historical data...
Loading historical data...
Other satellites on launch #132 in the year 2025 (2025-06-20 UTC)

Documentation

Showing up to 5 results
|